Weather History for KMFV - May, 2013

Change the Weather History Date:

Tuesday, May 14, 2013

  Actual Average (KWAL) Record (KWAL)
Temperature  
Mean Temperature 52 °F 62 °F  
Max Temperature 64 °F 71 °F 85 °F (2010)
Min Temperature 39 °F 53 °F 41 °F (2013)
Degree Days  
Heating Degree Days 14    
Month to date heating degree days  
Since 1 July heating degree days  
Cooling Degree Days 0    
Month to date cooling degree days  
Year to date cooling degree days  
Growing Degree Days 2 (Base 50)    
Moisture  
Dew Point 34 °F    
Average Humidity 50    
Maximum Humidity 81    
Minimum Humidity 26    
Precipitation  
Precipitation 0.00 in 0.08 in 1.47 in ()
Month to date precipitation 1.23  
Year to date precipitation 14.10  
Sea Level Pressure  
Sea Level Pressure 30.16 in    
Wind  
Wind Speed 5 mph (NNW)    
Max Wind Speed 14 mph    
Max Gust Speed 21 mph    
Visibility 10 miles    
Events      
T = Trace of Precipitation, MM = Missing Value Source: NWS Daily Summary

Daily Weather History Graph

Daily Weather History Graph

Search for Another Location

Airport or City:

Trip Planner

Search our weather history database for the weather conditions in past years. The results will help you decide how hot, cold, wet, or windy it might be!

Date:

Astronomy

May. 14, 2013 Rise Set
Actual Time 5:54 AM EDT 8:05 PM EDT
Civil Twilight 5:24 AM EDT 8:34 PM EDT
Nautical Twilight 4:49 AM EDT 9:10 PM EDT
Astronomical Twilight 4:10 AM EDT 9:49 PM EDT
Moon 9:31 AM EDT (5/14) 11:51 PM EDT (5/14)
Length of Visible Light 15h 09m
Length of Day
14h 10m
Waxing Crescent, 19% of the Moon is Illuminated
May 14
Waxing Crescent
May 18
First Quarter
May 25
Full
May 31
Last Quarter
Jun 8
New

Hourly Weather History & Observations

Time (EDT) Temp. Windchill Dew Point Humidity Pressure Visibility Wind Dir Wind Speed Gust Speed Precip Events Conditions
12:16 AM 51.8 °F - 28.4 °F 41% 30.15 in 10.0 mi NNE 5.8 mph - N/A   Clear
12:36 AM 51.8 °F - 30.2 °F 44% 30.16 in 10.0 mi NNE 3.5 mph - N/A   Clear
12:56 AM 48.2 °F - 32.0 °F 54% 30.16 in 10.0 mi NE 3.5 mph - N/A   Clear
1:16 AM 46.4 °F 45.2 °F 33.8 °F 62% 30.16 in 10.0 mi NE 3.5 mph - N/A   Clear
1:36 AM 44.6 °F - 33.8 °F 66% 30.16 in 10.0 mi Calm Calm - N/A   Clear
1:56 AM 44.6 °F - 33.8 °F 66% 30.16 in 10.0 mi Calm Calm - N/A   Clear
2:16 AM 44.6 °F - 33.8 °F 66% 30.16 in 10.0 mi Calm Calm - N/A   Clear
2:36 AM 42.8 °F 41.1 °F 33.8 °F 70% 30.17 in 10.0 mi NNE 3.5 mph - N/A   Clear
2:56 AM 42.8 °F 40.1 °F 33.8 °F 70% 30.16 in 10.0 mi NNE 4.6 mph - N/A   Clear
3:16 AM 41.0 °F 38.0 °F 33.8 °F 76% 30.16 in 10.0 mi NNE 4.6 mph - N/A   Clear
3:36 AM 41.0 °F 38.0 °F 33.8 °F 76% 30.16 in 10.0 mi NE 4.6 mph - N/A   Clear
3:56 AM 41.0 °F 38.0 °F 33.8 °F 76% 30.16 in 10.0 mi NE 4.6 mph - N/A   Clear
4:16 AM 41.0 °F 39.0 °F 33.8 °F 76% 30.17 in 10.0 mi NNE 3.5 mph - N/A   Clear
4:36 AM 41.0 °F 38.0 °F 33.8 °F 76% 30.16 in 10.0 mi NE 4.6 mph - N/A   Clear
4:56 AM 39.2 °F 35.9 °F 33.8 °F 81% 30.16 in 10.0 mi NNE 4.6 mph - N/A   Clear
5:16 AM 39.2 °F 35.0 °F 33.8 °F 81% 30.17 in 10.0 mi NNE 5.8 mph - N/A   Clear
5:36 AM 39.2 °F 35.0 °F 33.8 °F 81% 30.18 in 10.0 mi NNE 5.8 mph - N/A   Clear
5:56 AM 39.2 °F 35.9 °F 33.8 °F 81% 30.18 in 10.0 mi NNE 4.6 mph - N/A   Clear
6:16 AM 39.2 °F 35.9 °F 33.8 °F 81% 30.18 in 10.0 mi NNE 4.6 mph - N/A   Clear
6:36 AM 44.6 °F 41.4 °F 33.8 °F 66% 30.19 in 10.0 mi NNE 5.8 mph - N/A   Clear
6:56 AM 46.4 °F 44.3 °F 35.6 °F 66% 30.19 in 10.0 mi NE 4.6 mph - N/A   Clear
7:16 AM 48.2 °F - 35.6 °F 62% 30.19 in 10.0 mi NNE 4.6 mph - N/A   Clear
7:36 AM 51.8 °F - 35.6 °F 54% 30.20 in 10.0 mi NNE 5.8 mph - N/A   Clear
7:56 AM 51.8 °F - 35.6 °F 54% 30.20 in 10.0 mi NE 4.6 mph - N/A   Clear
8:16 AM 53.6 °F - 35.6 °F 51% 30.21 in 10.0 mi Calm Calm - N/A   Clear
8:36 AM 55.4 °F - 33.8 °F 44% 30.20 in 10.0 mi North 5.8 mph - N/A   Clear
8:56 AM 57.2 °F - 32.0 °F 38% 30.20 in 10.0 mi NW 6.9 mph - N/A   Clear
9:17 AM 57.2 °F - 30.2 °F 36% 30.21 in 10.0 mi NNW 8.1 mph - N/A   Clear
9:36 AM 57.2 °F - 30.2 °F 36% 30.21 in 10.0 mi NW 6.9 mph - N/A   Clear
9:57 AM 57.2 °F - 30.2 °F 36% 30.21 in 10.0 mi NNW 5.8 mph 10.4 mph N/A   Clear
10:16 AM 57.2 °F - 33.8 °F 41% 30.21 in 10.0 mi WNW 8.1 mph 16.1 mph N/A   Clear
10:36 AM 57.2 °F - 33.8 °F 41% 30.21 in 10.0 mi WNW 9.2 mph - N/A   Clear
10:56 AM 57.2 °F - 35.6 °F 44% 30.22 in 10.0 mi NW 11.5 mph 16.1 mph N/A   Scattered Clouds
11:16 AM 59.0 °F - 35.6 °F 42% 30.22 in 10.0 mi NW 8.1 mph - N/A   Scattered Clouds
11:36 AM 59.0 °F - 30.2 °F 34% 30.22 in 10.0 mi West 10.4 mph 17.3 mph N/A   Scattered Clouds
11:56 AM 57.2 °F - 30.2 °F 36% 30.22 in 10.0 mi NW 8.1 mph 20.7 mph N/A   Scattered Clouds
12:16 PM 59.0 °F - 28.4 °F 31% 30.20 in 10.0 mi West 13.8 mph 17.3 mph N/A   Clear
12:36 PM 60.8 °F - 30.2 °F 31% 30.21 in 10.0 mi West 10.4 mph 18.4 mph N/A   Clear
12:56 PM 60.8 °F - 28.4 °F 29% 30.20 in 10.0 mi West 12.7 mph 16.1 mph N/A   Clear
1:16 PM 60.8 °F - 28.4 °F 29% 30.20 in 10.0 mi WNW 12.7 mph 18.4 mph N/A   Clear
1:36 PM 60.8 °F - 28.4 °F 29% 30.19 in 10.0 mi WNW 12.7 mph - N/A   Clear
1:56 PM 60.8 °F - 28.4 °F 29% 30.19 in 10.0 mi NW 8.1 mph - N/A   Clear
2:16 PM 60.8 °F - 26.6 °F 27% 30.17 in 10.0 mi West 10.4 mph - N/A   Clear
2:36 PM 60.8 °F - 28.4 °F 29% 30.17 in 10.0 mi WNW 10.4 mph 17.3 mph N/A   Clear
2:56 PM 62.6 °F - 26.6 °F 26% 30.16 in 10.0 mi WNW 8.1 mph - N/A   Clear
3:16 PM 62.6 °F - 28.4 °F 27% 30.15 in 10.0 mi West 10.4 mph 17.3 mph N/A   Clear
3:36 PM 62.6 °F - 28.4 °F 27% 30.14 in 10.0 mi West 6.9 mph - N/A   Clear
3:56 PM 64.4 °F - 30.2 °F 28% 30.14 in 10.0 mi NW 8.1 mph - N/A   Clear
4:16 PM 62.6 °F - 30.2 °F 30% 30.14 in 10.0 mi WNW 8.1 mph - N/A   Clear
4:36 PM 62.6 °F - 30.2 °F 30% 30.14 in 10.0 mi WNW 5.8 mph - N/A   Clear
4:56 PM 62.6 °F - 32.0 °F 32% 30.13 in 10.0 mi NW 5.8 mph - N/A   Clear
5:16 PM 62.6 °F - 32.0 °F 32% 30.13 in 10.0 mi Calm Calm - N/A   Clear
5:36 PM 62.6 °F - 32.0 °F 32% 30.13 in 10.0 mi NNW 3.5 mph - N/A   Clear
5:56 PM 62.6 °F - 32.0 °F 32% 30.12 in 10.0 mi Calm Calm - N/A   Clear
6:16 PM 64.4 °F - 30.2 °F 28% 30.11 in 10.0 mi WSW 4.6 mph - N/A   Clear
6:36 PM 64.4 °F - 30.2 °F 28% 30.11 in 10.0 mi Calm Calm - N/A   Clear
6:56 PM 62.6 °F - 32.0 °F 32% 30.12 in 10.0 mi Calm Calm - N/A   Clear
7:16 PM 60.8 °F - 37.4 °F 42% 30.11 in 10.0 mi South 3.5 mph - N/A   Clear
7:36 PM 60.8 °F - 39.2 °F 45% 30.11 in 10.0 mi Calm Calm - N/A   Clear
7:56 PM 57.2 °F - 42.8 °F 59% 30.12 in 10.0 mi Calm Calm - N/A   Clear
8:16 PM 59.0 °F - 39.2 °F 48% 30.12 in 10.0 mi SSE 5.8 mph - N/A   Scattered Clouds
8:36 PM 59.0 °F - 42.8 °F 55% 30.11 in 10.0 mi South 8.1 mph - N/A   Clear
8:56 PM 59.0 °F - 42.8 °F 55% 30.12 in 10.0 mi South 5.8 mph - N/A   Clear
9:16 PM 59.0 °F - 42.8 °F 55% 30.12 in 10.0 mi SSE 5.8 mph - N/A   Clear
9:36 PM 59.0 °F - 44.6 °F 59% 30.12 in 10.0 mi South 6.9 mph - N/A   Scattered Clouds
9:56 PM 59.0 °F - 44.6 °F 59% 30.13 in 10.0 mi SSE 6.9 mph - N/A   Mostly Cloudy
10:16 PM 59.0 °F - 46.4 °F 63% 30.13 in 10.0 mi South 8.1 mph - N/A   Overcast
10:36 PM 60.8 °F - 46.4 °F 59% 30.13 in 10.0 mi South 6.9 mph - N/A   Overcast
10:56 PM 60.8 °F - 48.2 °F 63% 30.12 in 10.0 mi South 8.1 mph - N/A   Overcast
11:16 PM 60.8 °F - 48.2 °F 63% 30.12 in 10.0 mi South 6.9 mph - N/A   Overcast
11:36 PM 60.8 °F - 48.2 °F 63% 30.12 in 10.0 mi SSE 8.1 mph - N/A   Overcast
11:56 PM 60.8 °F - 48.2 °F 63% 30.12 in 10.0 mi SSE 4.6 mph - N/A   Overcast